Flag Weather past 2 weeks in Leiria, Portugal

Now
79 °F

Sunny.


Feels Like: 80 °F
Forecast: N/A
Wind: 6 mph from South

Location: Monte Real Mil.

Current Time: Oct 30, 2014 at 5:45:41 PM

Latest Report: Oct 30, 2014 at 5:00 PM


Visibility: 10 mi

Pressure: 30.01 "Hg

Humidity: 48%

Dew point: 57 °F

Location of LeiriaLocation

Historic Weather in Leiria — Graph

°F

Leiria temperature yesterday

Maximum temperature yesterday: 77 °F (at 2:00 PM)
Minimum temperature yesterday: 61 °F (at 1:00 AM)
Average temperature yesterday: 69 °F

Past Weeks' High & Low Weather Summary

 TemperatureHumidityPressure
High86 °F (Oct 20, 3:00 PM)100% (Oct 22, 12:00 AM)30.33 "Hg (Oct 22, 12:00 AM)
Low54 °F (Oct 27, 5:00 AM)37% (Oct 24, 3:00 PM)29.86 "Hg (Oct 15, 5:00 PM)
Average69 °F74%30.03 "Hg
* Reported Oct 15 5:00 PM — Oct 30 4:00 PM, Leiria, Weather by CustomWeather, © 2014

Note: Actual official high and low records may vary slightly from our data, if they occured in-between our weather recording intervals... More about our weather records

Advertising

Leiria weather history for previous 24 hours

 ConditionsComfort  
Time TempWeatherWind HumidityBarometerVisibility
4:00 PM
Oct 30
81 °FSunny.8 mph42%30.01 "Hg10 mi
3:00 PM81 °FSunny.9 mph45%30.01 "Hg10 mi
2:00 PM81 °FPassing clouds.8 mph42%30.01 "HgN/A
1:00 PM79 °FPassing clouds.9 mph45%30.04 "HgN/A
12:00 PM77 °FSunny.13 mph47%30.04 "Hg10 mi
11:00 AM75 °FPassing clouds.13 mph50%30.04 "HgN/A
10:00 AM72 °FSunny.14 mph57%30.04 "Hg10 mi
9:00 AM66 °FSunny.10 mph68%30.04 "Hg10 mi
7:00 AM64 °FPassing clouds.3 mph73%30.04 "HgN/A
6:00 AM64 °FClear.7 mph73%30.01 "Hg10 mi
5:00 AM64 °FClear.5 mph73%30.01 "Hg10 mi
4:00 AM64 °FClear.5 mph73%30.01 "Hg10 mi
3:00 AM66 °FClear.7 mph73%30.01 "Hg10 mi
2:00 AM66 °FClear.6 mph68%30.01 "Hg10 mi
1:00 AM66 °FClear.6 mph68%30.01 "Hg10 mi
12:00 AM68 °FClear.8 mph69%30.01 "Hg10 mi
11:00 PM
Oct 29
68 °FClear.7 mph69%30.01 "Hg10 mi
10:00 PM68 °FClear.7 mph69%30.01 "Hg10 mi
9:00 PM70 °FClear.7 mph69%30.01 "Hg10 mi
8:00 PM70 °FClear.6 mph69%29.98 "Hg10 mi
7:00 PM72 °FClear.6 mph65%29.98 "Hg10 mi
6:00 PM75 °FClear.6 mph61%29.95 "Hg10 mi
5:00 PM77 °FSunny.8 mph54%29.92 "Hg10 mi
Weather by CustomWeather, © 2014

See weather overviewHow to use our weather pages